GW2922 Weather Reports


time (UTC)temp
C
wind
direction
speed
KPH
gust
KPH
rain 1hr
cm
rain 24hr
cm
rain mn
cm
humidity
%
barometer
mb
20260505030606 15 109 0.0 3.2 0.00 0.00 0.00 70 1012.1
20260505025557 15 188 1.6 9.7 0.00 0.00 0.00 69 1011.8
20260505025056 16 263 3.2 6.4 0.00 0.00 0.00 68 1011.8
20260505024553 16 280 1.6 3.2 0.00 0.00 0.00 67 1011.8
20260505024045 16 307 3.2 6.4 0.00 0.00 0.00 66 1011.3
20260505023542 16 218 4.8 6.4 0.00 0.00 0.00 66 1011.8
20260505023039 16 189 1.6 3.2 0.00 0.00 0.00 65 1011.8
20260505022536 16 163 0.0 11.3 0.00 0.00 0.00 64 1011.8
20260505022033 16 343 1.6 4.8 0.00 0.00 0.00 64 1011.8
20260505021529 17 116 1.6 4.8 0.00 0.00 0.00 63 1011.8
20260505021026 17 287 3.2 9.7 0.00 0.00 0.00 63 1012.1
20260505020520 17 120 1.6 12.9 0.00 0.00 0.00 63 1012.1
20260505020018 17 17 3.2 6.4 0.00 0.00 0.00 62 1012.1
20260505015515 17 84 3.2 4.8 0.00 0.00 0.00 61 1012.1
20260505015012 18 270 4.8 6.4 0.00 0.00 0.00 59 1012.1
20260505014509 19 160 1.6 12.9 0.00 0.00 0.00 58 1012.1
20260505014007 19 261 3.2 4.8 0.00 0.00 0.00 56 1012.1
20260505013503 18 345 1.6 11.3 0.00 0.00 0.00 57 1012.1
20260505013000 19 354 3.2 9.7 0.00 0.00 0.00 56 1012.1
20260505012459 20 225 1.6 6.4 0.00 0.00 0.00 55 1012.5
20260505011955 20 205 4.8 11.3 0.00 0.00 0.00 55 1012.1
20260505011451 20 358 3.2 16.1 0.00 0.00 0.00 55 1012.1
20260505010948 19 285 4.8 17.7 0.00 0.00 0.00 56 1012.5
20260505010444 20 38 4.8 12.9 0.00 0.00 0.00 54 1012.1
20260505005940 20 286 1.6 6.4 0.00 0.00 0.00 55 1012.5
20260505005437 20 104 6.4 14.5 0.00 0.00 0.00 54 1012.5
20260505004935 20 226 6.4 17.7 0.00 0.00 0.00 54 1012.1
20260505004431 20 102 1.6 6.4 0.00 0.00 0.00 54 1012.5
20260505003928 21 41 4.8 6.4 0.00 0.00 0.00 53 1012.5
20260505003425 21 258 1.6 12.9 0.00 0.00 0.00 54 1012.5
20260505002921 21 318 1.6 4.8 0.00 0.00 0.00 53 1012.1
20260505002418 21 346 8.0 11.3 0.00 0.00 0.00 51 1012.5
20260505001916 21 270 3.2 3.2 0.00 0.00 0.00 50 1012.5
20260505001413 21 337 6.4 11.3 0.00 0.00 0.00 52 1012.5
20260505000910 21 347 4.8 6.4 0.00 0.00 0.00 52 1012.5
20260505000408 21 321 9.7 11.3 0.00 0.00 0.00 52 1012.5
20260504235904 22 244 6.4 11.3 0.00 0.00 0.00 50 1012.5
20260504235402 22 39 3.2 11.3 0.00 0.00 0.00 51 1012.5
20260504234858 22 33 3.2 4.8 0.00 0.00 0.00 49 1012.5
20260504234356 21 63 3.2 9.7 0.00 0.00 0.00 50 1012.5
20260504233852 22 129 1.6 16.1 0.00 0.00 0.00 48 1012.5
20260504233348 23 114 1.6 4.8 0.00 0.00 0.00 45 1012.5
20260504232844 23 155 0.0 1.6 0.00 0.00 0.00 45 1012.5
20260504232342 22 243 1.6 3.2 0.00 0.00 0.00 47 1012.5
20260504231838 22 87 1.6 20.9 0.00 0.00 0.00 49 1012.5
20260504231335 21 100 0.0 11.3 0.00 0.00 0.00 50 1012.5
20260504230831 21 101 0.0 11.3 0.00 0.00 0.00 49 1012.5
20260504230329 21 86 3.2 12.9 0.00 0.00 0.00 51 1012.5
20260504225828 20 303 3.2 12.9 0.00 0.00 0.00 52 1012.5
20260504225324 21 249 6.4 11.3 0.00 0.00 0.00 51 1012.5
20260504224821 20 141 4.8 11.3 0.00 0.00 0.00 53 1012.5
20260504224318 21 101 1.6 9.7 0.00 0.00 0.00 52 1012.5
20260504223815 21 316 4.8 6.4 0.00 0.00 0.00 50 1012.5
20260504223310 21 335 3.2 11.3 0.00 0.00 0.00 51 1012.8
20260504222807 22 46 1.6 4.8 0.00 0.00 0.00 46 1012.5
20260504222305 23 191 4.8 6.4 0.00 0.00 0.00 43 1012.5
20260504221802 22 116 1.6 3.2 0.00 0.00 0.00 45 1012.8
20260504221259 23 106 1.6 3.2 0.00 0.00 0.00 43 1012.8
20260504220755 23 183 3.2 6.4 0.00 0.00 0.00 43 1012.8
20260504220252 22 270 3.2 6.4 0.00 0.00 0.00 44 1012.5
20260504215749 23 72 1.6 4.8 0.00 0.00 0.00 43 1012.8
20260504215245 23 129 1.6 1.6 0.00 0.00 0.00 42 1012.5
20260504214736 23 1 3.2 4.8 0.00 0.00 0.00 43 1012.8
20260504214233 24 217 3.2 9.7 0.00 0.00 0.00 41 1012.8
20260504213729 23 161 0.0 4.8 0.00 0.00 0.00 42 1012.8
20260504213225 23 305 9.7 11.3 0.00 0.00 0.00 41 1012.8
20260504212723 24 89 0.0 4.8 0.00 0.00 0.00 41 1012.8
20260504212220 24 85 3.2 6.4 0.00 0.00 0.00 42 1013.1
20260504211717 23 241 1.6 4.8 0.00 0.00 0.00 45 1012.8
20260504211213 23 148 0.0 3.2 0.00 0.00 0.00 45 1012.8
20260504210711 25 30 3.2 4.8 0.00 0.00 0.00 43 1012.8
20260504210208 25 45 4.8 6.4 0.00 0.00 0.00 41 1012.8
20260504205705 25 50 4.8 4.8 0.00 0.00 0.00 36 1012.8
20260504205202 24 118 1.6 4.8 0.00 0.00 0.00 37 1012.8
20260504204700 25 6 3.2 4.8 0.00 0.00 0.00 36 1012.8
20260504204159 25 75 1.6 6.4 0.00 0.00 0.00 37 1012.8
20260504203657 25 92 1.6 6.4 0.00 0.00 0.00 37 1012.8
20260504203154 26 49 1.6 3.2 0.00 0.00 0.00 36 1012.8
20260504202649 26 27 3.2 4.8 0.00 0.00 0.00 36 1012.8
20260504202146 26 20 1.6 3.2 0.00 0.00 0.00 36 1012.8
20260504201643 25 164 0.0 3.2 0.00 0.00 0.00 38 1012.8
20260504201141 25 131 0.0 3.2 0.00 0.00 0.00 38 1012.8
20260504200638 24 67 1.6 11.3 0.00 0.00 0.00 40 1012.8
20260504200134 23 53 1.6 4.8 0.00 0.00 0.00 39 1012.8
20260504195630 23 136 0.0 4.8 0.00 0.00 0.00 38 1012.8
20260504195127 24 101 1.6 3.2 0.00 0.00 0.00 38 1012.8
20260504194623 23 53 1.6 4.8 0.00 0.00 0.00 39 1012.8
20260504194119 23 109 3.2 11.3 0.00 0.00 0.00 40 1012.8
20260504193616 23 79 1.6 4.8 0.00 0.00 0.00 42 1012.8
20260504193114 23 82 3.2 4.8 0.00 0.00 0.00 41 1013.1
20260504192612 23 248 0.0 3.2 0.00 0.00 0.00 41 1012.8
20260504192110 23 20 3.2 6.4 0.00 0.00 0.00 42 1012.8
20260504191608 23 318 4.8 6.4 0.00 0.00 0.00 43 1012.8
20260504191104 23 326 4.8 6.4 0.00 0.00 0.00 42 1012.8
20260504190600 23 101 1.6 4.8 0.00 0.00 0.00 42 1012.8
20260504190056 23 112 3.2 4.8 0.00 0.00 0.00 42 1012.8
20260504185553 23 71 1.6 1.6 0.00 0.00 0.00 42 1012.8
20260504185050 23 193 3.2 4.8 0.00 0.00 0.00 42 1012.8
20260504184545 23 289 3.2 3.2 0.00 0.00 0.00 44 1012.8
20260504184041 22 115 1.6 3.2 0.00 0.00 0.00 44 1012.8
20260504183538 22 47 3.2 4.8 0.00 0.00 0.00 46 1012.8
20260504183036 21 347 6.4 11.3 0.00 0.00 0.00 46 1012.8
20260504182533 21 81 1.6 3.2 0.00 0.00 0.00 47 1012.8
20260504182030 21 232 6.4 6.4 0.00 0.00 0.00 45 1012.8
20260504181527 21 220 3.2 4.8 0.00 0.00 0.00 49 1012.8
20260504181026 21 151 1.6 3.2 0.00 0.00 0.00 50 1012.8
20260504180524 21 297 1.6 4.8 0.00 0.00 0.00 49 1012.8
20260504180023 19 32 3.2 11.3 0.00 0.00 0.00 51 1013.1
20260504175519 20 319 3.2 4.8 0.00 0.00 0.00 49 1012.8
20260504175017 20 180 1.6 9.7 0.00 0.00 0.00 50 1013.1
20260504174514 20 111 0.0 6.4 0.00 0.00 0.00 52 1012.8
20260504174011 20 89 1.6 4.8 0.00 0.00 0.00 51 1012.8
20260504173508 20 113 0.0 6.4 0.00 0.00 0.00 51 1013.1
20260504173005 20 84 3.2 3.2 0.00 0.00 0.00 53 1012.8
20260504172501 19 108 3.2 6.4 0.00 0.00 0.00 54 1012.8
20260504171957 19 47 1.6 9.7 0.00 0.00 0.00 55 1012.8
20260504171455 19 106 1.6 3.2 0.00 0.00 0.00 56 1012.8
20260504170951 18 89 0.0 3.2 0.00 0.00 0.00 56 1012.8
20260504170448 19 64 1.6 9.7 0.00 0.00 0.00 57 1012.8
20260504160408 17 29 1.6 4.8 0.00 0.00 0.00 63 1012.5
20260504150831 15 108 0.0 0.0 0.00 0.00 0.00 70 1012.1
20260504150328 15 127 0.0 0.0 0.00 0.00 0.00 71 1012.1
20260504141258 14 96 0.0 0.0 0.00 0.00 0.00 65 1011.8
20260504140755 14 95 0.0 3.2 0.00 0.00 0.00 65 1011.8
20260504140250 13 93 0.0 1.6 0.00 0.00 0.00 65 1011.8
20260504130719 11 122 0.0 0.0 0.00 0.00 0.00 71 1011.3
20260504130215 11 126 0.0 0.0 0.00 0.00 0.00 71 1011.3
20260504120139 10 141 0.0 0.0 0.00 0.00 0.00 77 1011.3
20260504110606 10 106 0.0 0.0 0.00 0.00 0.00 81 1011.8
20260504100528 10 113 0.0 0.0 0.00 0.00 0.00 79 1011.8
20260504081921 12 120 0.0 0.0 0.00 0.00 0.00 66 1011.8
20260504081418 13 121 0.0 0.0 0.00 0.00 0.00 65 1011.8
20260504080914 13 112 0.0 0.0 0.00 0.00 0.00 63 1011.8
20260504080411 13 112 0.0 0.0 0.00 0.00 0.00 62 1011.3
20260504070338 16 115 0.0 0.0 0.00 0.00 0.00 52 1012.1
20260504050715 17 179 0.0 1.6 0.00 0.00 0.00 49 1012.5
20260504050212 17 96 1.6 1.6 0.00 0.00 0.00 49 1012.5
20260504045709 17 157 0.0 1.6 0.00 0.00 0.00 48 1012.5
20260504045204 17 126 1.6 1.6 0.00 0.00 0.00 49 1012.5
20260504044702 17 205 3.2 3.2 0.00 0.00 0.00 48 1012.5
20260504044159 18 103 1.6 1.6 0.00 0.00 0.00 46 1012.5
20260504043656 18 344 1.6 1.6 0.00 0.00 0.00 47 1012.5
20260504043153 18 103 1.6 1.6 0.00 0.00 0.00 47 1012.5
20260504042650 18 111 0.0 1.6 0.00 0.00 0.00 47 1012.5
20260504042147 18 111 1.6 3.2 0.00 0.00 0.00 44 1012.5
20260504041642 18 84 1.6 1.6 0.00 0.00 0.00 45 1012.5
20260504041138 18 75 1.6 1.6 0.00 0.00 0.00 44 1012.5
20260504040636 18 293 1.6 3.2 0.00 0.00 0.00 46 1012.5
20260504040133 18 96 0.0 1.6 0.00 0.00 0.00 49 1012.5
20260504035629 18 120 0.0 1.6 0.00 0.00 0.00 49 1012.5
20260504035126 19 104 1.6 1.6 0.00 0.00 0.00 47 1012.5
20260504034624 19 69 1.6 1.6 0.00 0.00 0.00 43 1012.5
20260504034121 20 90 0.0 1.6 0.00 0.00 0.00 44 1012.1
20260504033619 20 96 0.0 1.6 0.00 0.00 0.00 43 1012.5
20260504033116 20 106 0.0 1.6 0.00 0.00 0.00 40 1012.5
20260504032612 20 105 0.0 1.6 0.00 0.00 0.00 44 1012.5
20260504032109 20 80 0.0 0.0 0.00 0.00 0.00 42 1012.5
20260504031607 20 97 1.6 1.6 0.00 0.00 0.00 40 1012.1
20260504031103 21 73 0.0 1.6 0.00 0.00 0.00 39 1012.5